Regional Weather Roundup
Issued by NWS

Home | Current Version | Previous Version | Graphics & Text | Print | Product List | Glossary Off
Versions: 1 2 3 4 5 6 7 8 9 10 11 12 13 14 15 16 17 18 19 20 21 22 23 24 25 26 27 28 29 30 31 32 33 34 35 36 37 38 39 40 41 42 43 44 45 46 47 48 49 50

000
ASUS43 KDMX 041703
RWRIA

WEATHER ROUNDUP FOR IOWA
NATIONAL WEATHER SERVICE DES MOINES IA
1200 PM CDT WED MAY 04 2016

NOTE: "FAIR" INDICATES FEW OR NO CLOUDS BELOW 12,000 FEET WITH NO
SIGNIFICANT WEATHER AND/OR OBSTRUCTIONS TO VISIBILITY.

* - THESE STATIONS ARE NOT NWS STATIONS...THUS NOT UNDER NWS
QUALITY CONTROL.  THEY ALSO DO NOT REPORT WEATHER SUCH
AS PRECIPITATION OR FOG.

IAZ001>003-012>014-020>022-031>034-043>046-041800-
   NORTHWEST IOWA

CITY           SKY/WX    TMP DP  RH WIND       PRES   REMARKS
CARROLL *      SUNNY     59  37  44 N15G21    30.04R
CHEROKEE *     SUNNY     59  36  42 N12G20    30.06S
DENISON *      SUNNY     61  37  41 N15       30.04R
LE MARS *      SUNNY     61  36  39 N14G21    30.09S
ORANGE CITY *  SUNNY     59  37  44 N7G16     30.08R
SHELDON *      SUNNY     59  36  41 NW15G25   30.06S
SIOUX CITY     SUNNY     64  39  39 N16G23    30.08S
SPENCER        SUNNY     59  33  37 N17G25    30.05S
STORM LAKE *   SUNNY     57  36  44 N13G21    30.06R
$$

IAZ055>058-069>071-079>083-090>094-041800-
   SOUTHWEST IOWA

CITY           SKY/WX    TMP DP  RH WIND       PRES   REMARKS
ATLANTIC *     SUNNY     61  39  44 N15G24    30.04R
AUDUBON *      SUNNY     61  37  41 N13G18    30.05R
CLARINDA *       N/A     64  41  42 MISG      30.04
COUNCIL BLFS * SUNNY     63  41  45 N14G22    30.05S
CRESTON *      SUNNY     61  39  44 N20G28    30.02R
HARLAN  *      SUNNY     61  36  39 N16       30.07R
LAMONI         SUNNY     61  41  47 N18G26    29.98R
RED OAK *      SUNNY     64  37  36 N16G23    30.04R
SHENANDOAH *   SUNNY     64  41  42 N15G23    30.05R
$$

IAZ047>049-059>061-072>074-084-041800-
   CENTRAL IOWA

CITY           SKY/WX    TMP DP  RH WIND       PRES   REMARKS
AMES           SUNNY     60  36  40 N16G28    29.99S
ANKENY *       SUNNY     61  36  39 N16G22    29.99S
BOONE *        SUNNY     59  34  38 N17G25    29.99S
CHARITON *     SUNNY     61  39  44 N18G25    29.97R
DES MOINES     MOSUNNY   62  32  32 NW16G22   29.99R
GRINNELL*      SUNNY     59  32  36 N20G25    29.96R
KNOXVILLE *    SUNNY     59  36  41 NW15G25   29.96R
MARSHALLTOWN   SUNNY     59  36  42 N17G30    29.97R
NEWTON *       SUNNY     59  36  41 N17G26    29.97R
PERRY *          N/A     59  36  41 N16       30.02R
$$

IAZ004>006-015-016-023>025-035-036-041800-
   NORTH CENTRAL IOWA

CITY           SKY/WX    TMP DP  RH WIND       PRES   REMARKS
ALGONA *       SUNNY     59  34  38 N15G26    30.02S
CLARION *      SUNNY     59  32  36 N14G28    30.00R
ESTHERVILLE    SUNNY     57  36  45 N14G23    30.03S
FORT DODGE *   SUNNY     59  36  41 NW13G18   30.02S
MASON CITY     SUNNY     60  34  37 NW22G30   29.99S
FOREST CITY *  SUNNY     57  32  38 N18       29.99S
WEBSTER CITY * SUNNY     61  32  33 N18G29    29.98S
IOWA FALLS *     N/A     59  32  36 N21G30    29.99S
$$

IAZ007>011-017>019-026>030-037>042-050>054-066-041800-
   NORTHEAST IOWA

CITY           SKY/WX    TMP DP  RH WIND       PRES   REMARKS
CEDAR RAPIDS   MOSUNNY   58  37  45 N23G30    29.91R
CHARLES CITY * SUNNY     59  32  36 N22G31    29.96S
CLINTON *      PTSUNNY   56  42  59 N21       29.87R
DECORAH *      MOSUNNY   55  32  41 N21G30    29.90F
DUBUQUE        MOSUNNY   56  35  45 N23G36    29.87R
MONTICELLO *   MOSUNNY   59  36  41 NW25G31   29.89S
OELWEIN *      MOSUNNY   57  34  41 N21G36    29.93S
WATERLOO       MOSUNNY   59  33  37 N18G37    29.94S
$$

IAZ064-065-067-068-078-041800-
   EAST CENTRAL IOWA

CITY           SKY/WX    TMP DP  RH WIND       PRES   REMARKS
DAVENPORT      MOSUNNY   57  40  52 N21       29.87S
IOWA CITY      MOSUNNY   58  35  42 N17G28    29.92S
MT. PLEASANT * MOSUNNY   61  43  51 N18G29    29.90S
MUSCATINE *    SUNNY     59  39  47 N18G28    29.90R
QUAD CITIES    PTSUNNY   58  40  51 NW17G28   29.85S
$$

IAZ062-063-075>077-085>089-095>099-041800-
   SOUTHEAST IOWA

CITY           SKY/WX    TMP DP  RH WIND       PRES   REMARKS
BURLINGTON     PTSUNNY   58  42  55 N20G28    29.88R
FAIRFIELD *    MOSUNNY   59  39  47 N20G28    29.92S
FORT MADISON * MOSUNNY   59  45  58 N16G23    29.90R
KEOKUK *       MOSUNNY   61  45  55 NW14G24   29.89S
OSKALOOSA *      N/A     61  34  36 N22       29.95R
OTTUMWA        SUNNY     60  36  40 N24       29.94R
WASHINGTON *   SUNNY     59  37  44 N18G28    29.93R
$$

ABBREVIATIONS USED IN REMARKS
   TC - TEMPERATURES IN CELSIUS
  WCI - WIND CHILL INDEX
   HX - HEAT INDEX
  VSB - VISIBILITY
$$




USA.gov is the U.S. government's official web portal to all federal, state and local government web resources and services.